Flag for Spain Weather past 2 weeks in Málaga, Spain

Now
55 °F

Partly cloudy.


Feels Like: 54 °F
Forecast: 39 / 54 °F
Wind: 7 mph from Northwest

Location: Malaga / Aeropuerto

Current Time: Dec 29, 2014 at 3:35:55 AM

Latest Report: Dec 29, 2014 at 3:00 AM


Visibility: N/A

Pressure: 30.15 "Hg

Humidity: 67%

Dew point: 45 °F

Location of MálagaLocation

Historic Weather in Málaga — Graph

°F

Málaga temperature yesterday

Maximum temperature yesterday: 61 °F (at 1:00 PM)
Minimum temperature yesterday: 50 °F (at 1:00 AM)
Average temperature yesterday: 55 °F

Past Weeks' High & Low Weather Summary

 TemperatureHumidityPressure
High66 °F (Dec 17, 1:30 PM)100% (Dec 20, 8:50 PM)30.48 "Hg (Dec 20, 8:50 PM)
Low39 °F (Dec 27, 7:00 AM)40% (Dec 26, 4:30 PM)29.86 "Hg (Dec 14, 1:00 PM)
Average54 °F77%30.28 "Hg
* Reported Dec 14 2:00 AM — Dec 29 2:30 AM, Málaga, Weather by CustomWeather, © 2014

Note: Actual official high and low records may vary slightly from our data, if they occured in-between our weather recording intervals... More about our weather records

Advertising

Málaga weather history for previous 24 hours

 ConditionsComfort  
Time TempWeatherWind HumidityBarometerVisibility
2:30 AM
Dec 29
57 °FPartly cloudy.12 mph63%30.12 "HgN/A
1:30 AM55 °FPassing clouds.6 mph72%30.12 "HgN/A
1:00 AM55 °FPassing clouds.3 mph72%30.12 "HgN/A
12:30 AM55 °FPassing clouds.5 mph72%30.12 "HgN/A
12:00 AM55 °FPassing clouds.5 mph72%30.12 "HgN/A
11:30 PM
Dec 28
54 °FPassing clouds.2 mph77%30.15 "HgN/A
11:00 PM54 °FPassing clouds.2 mph77%30.15 "HgN/A
10:30 PM54 °FPassing clouds.1 mph77%30.15 "HgN/A
10:00 PM55 °FPassing clouds.2 mph72%30.15 "HgN/A
9:30 PM54 °FPassing clouds.5 mph77%30.15 "HgN/A
9:00 PM55 °FPassing clouds.5 mph72%30.15 "HgN/A
8:30 PM55 °FPassing clouds.3 mph72%30.15 "HgN/A
8:00 PM57 °FPassing clouds.No wind67%30.15 "HgN/A
7:30 PM55 °FPassing clouds.1 mph72%30.12 "HgN/A
7:00 PM55 °FPassing clouds.5 mph72%30.12 "HgN/A
6:30 PM57 °FPassing clouds.6 mph67%30.12 "HgN/A
6:00 PM59 °FPartly sunny.10 mph63%30.12 "HgN/A
5:30 PM59 °FPartly sunny.9 mph63%30.12 "HgN/A
5:00 PM57 °FPartly sunny.12 mph67%30.12 "HgN/A
4:30 PM59 °FPartly sunny.10 mph63%30.12 "HgN/A
4:00 PM59 °FPartly sunny.13 mph63%30.12 "HgN/A
3:30 PM59 °FPartly sunny.16 mph63%30.12 "HgN/A
3:00 PM61 °FScattered clouds.12 mph59%30.12 "HgN/A
2:30 PM61 °FScattered clouds.12 mph59%30.12 "HgN/A
2:00 PM61 °FPassing clouds.15 mph59%30.12 "HgN/A
1:30 PM61 °FPassing clouds.15 mph52%30.15 "HgN/A
1:00 PM61 °FPassing clouds.16 mph52%30.15 "HgN/A
12:30 PM59 °FSunny.16 mph55%30.15 "Hg10 mi
12:00 PM59 °FSunny.17 mph55%30.18 "Hg10 mi
11:30 AM57 °FSunny.13 mph59%30.18 "Hg10 mi
11:00 AM55 °FPassing clouds.16 mph59%30.21 "HgN/A
10:30 AM54 °FSunny.13 mph67%30.18 "Hg10 mi
10:00 AM54 °FSunny.13 mph63%30.18 "Hg10 mi
9:30 AM52 °FPassing clouds.14 mph67%30.18 "HgN/A
9:00 AM50 °FPassing clouds.9 mph71%30.18 "HgN/A
8:30 AM50 °FPassing clouds.6 mph71%30.18 "HgN/A
8:00 AM50 °FClear.7 mph71%30.15 "Hg10 mi
7:30 AM52 °FPassing clouds.8 mph62%30.15 "HgN/A
7:00 AM52 °FPassing clouds.8 mph62%30.15 "HgN/A
6:30 AM52 °FPassing clouds.9 mph67%30.15 "HgN/A
6:00 AM50 °FClear.8 mph71%30.15 "Hg10 mi
5:30 AM50 °FPassing clouds.10 mph71%30.15 "HgN/A
4:30 AM52 °FPassing clouds.15 mph67%30.15 "HgN/A
4:00 AM52 °FClear.14 mph72%30.15 "Hg10 mi
3:30 AM52 °FPassing clouds.13 mph67%30.15 "HgN/A
3:00 AM50 °FPassing clouds.10 mph71%30.15 "HgN/A
Weather by CustomWeather, © 2014

See weather overviewHow to use our weather pages